星链-31591 (STARLINK-31591 )

导读 | 豆包AI

STARLINK-31591是美国太空探索技术公司(SpaceX)星链星座的一员,于2024年3月11日发射升空。星链项目旨在构建全球卫星互联网星座,该卫星承担着为全球偏远地区、网络覆盖薄弱区域提供低延迟宽带互联网接入服务的任务,进一步扩充了星链星座的服务规模与覆盖能力。

基本信息
目录编号:
59207
目录名称:
STARLINK-31591
国际标识:
2024-046G
轨道中心:
EARTH
卫星名称:
星链-31591
卫星全名:
星链-31591 (STARLINK-31591 )
卫星状态:
在轨 (已飞行734 天)
发射日期:
2024-03-11 UTC
国别 :
美国 (US)
星等 :
--
轨道信息
数据来源 国际轨道数据
星历时间: 2026-03-15T18:55:16+0800
11小时前
查看轨道信息
半长轴: 6853.443km
偏心率: 0.0001024
轨道倾角: 53.159°
近地点辐角 87.789°
升交点赤经 128.461°
平近点角 272.323°
近地点: 474.604km
远地点: 476.008km
周期: 94.107分钟
每日圈数: 15.301696
详细信息
固有亮度:
5
最大亮度:
0.3
卫星平台:
Starlink v2.0 mini
覆盖范围:
全球
运营商:
太空探索技术公司
运营商所在国:
美国
制造商(研发单位):
太空探索技术公司
制造商所在国:
美国
使用方式:
暂无
卫星简介
星链(Starlink)计划是由太空探索技术公司(SpaceX)提出的一个巨型低轨卫星互联网星座项目,计划在2019年至2024年间在太空搭建由约1.2万颗卫星组成的“星链”网络,其中1584颗将部署在地球上空550千米处的近地轨道,并从2020年开始工作。该卫星仍在工作。
2D轨道图
3D轨道图
轨道高度分析图
轨道倾角分析图
轨道综合分析图
查看轨道综合分析图